Location: Champignolles
(47.0543°N, 4.5663°E)
Time: 16:00:28
(UTC+00:00)

SAR-Lupe-1 - Pass Details

Date: 30 November 2020
Orbit: 480 x 485 km, 98.2° (Epoch: 23 January)

Event Time Altitude Azimuth Distance (km) Brightness Sun altitude
Exits shadow 18:10:31 78° 252° (WSW) 500 4.1 -22.4°
Drops below altitude 10° 18:13:58 10° 199° (SSW) 1,659 7.1 -23.0°
Sets 18:16:00 0° 198° (SSW) 2,533 8.0 -23.3°
